Regional Weather Roundup
Issued by NWS

Home | Current Version | Previous Version | Text Only | Print | Product List | Glossary On
Versions: 1 2 3 4 5 6 7 8 9 10 11 12 13 14 15 16 17 18 19 20 21 22 23 24 25 26 27 28 29 30 31 32 33 34 35 36 37 38 39 40 41 42 43 44 45 46 47 48 49 50
000
ASUS44 KLIX 281610
RWRLA
LOUISIANA WEATHER ROUNDUP
NATIONAL WEATHER SERVICE NEW ORLEANS LA
1000 AM CST WED JAN 28 2015

NOTE: "FAIR" INDICATES FEW OR NO CLOUDS BELOW 12,000 FEET WITH NO
      SIGNIFICANT WEATHER AND/OR OBSTRUCTIONS TO VISIBILITY.
      SKY/WX - SKY CONDITION AND SIGNIFICANT WEATHER.
      TMP - AIR TEMPERATURE.    DP   - DEWPOINT TEMPERATURE.
      RH  - RELATIVE HUMIDITY.  PRES - PRESSURE.
      HX  - HEAT INDEX.         WCI  - WIND CHILL INDEX.

*  THESE STATIONS ARE NOT NWS OR FAA STATIONS AND ARE NOT UNDER
   NWS QUALITY CONTROL.

LAZ040-048-061>063-065-066-069-281700-
SOUTHEAST LOUISIANA

CITY           SKY/WX    TMP DP  RH WIND       PRES   REMARKS
N.O. AUDUBON     N/A     58  41  53 MISG        N/A
N.O. INTL ARPT SUNNY     58  40  51 E10       30.30R
N.O. LAKEFRONT SUNNY     57  40  52 E12       30.31R
N.O. DOWNTOWN* FAIR      55  37  50 E5        30.31R
SLIDELL        SUNNY     55  35  47 VRB7      30.30R
BATON ROUGE    SUNNY     57  37  47 E9        30.28S
BOOTHVILLE     SUNNY     58  47  66 NE8       30.31R
BELLE CHASSE   SUNNY     59  39  47 E10       30.30R
BOGALUSA*        N/A     56  35  46 E8        30.32R
GALLIANO*      SUNNY     61  46  58 MISG      30.30R
NEW ROADS*     FAIR      56  37  49 E13G18    30.27F
GONZALES*      FAIR      58  41  51 E7        30.28F
HAMMOND*       SUNNY     57  36  44 E3        30.31F
HOUMA*         SUNNY     59  46  63 E17       30.28R
PORT FOURCHON* SUNNY     61  50  67 E14G22    30.31S

$$

LAZ041-044-053-054-281700-
SOUTHWEST LOUISIANA

CITY           SKY/WX    TMP DP  RH WIND       PRES   REMARKS
LAKE CHARLES   SUNNY     61  44  53 SE13      30.26R
LAFAYETTE      SUNNY     60  39  45 E8        30.26S
PATTERSON      SUNNY     61  39  44 E10       30.28R
SALT POINT       N/A     60  41  49 E9        30.26R
NEW IBERIA     SUNNY     61  41  47 SE8       30.27R
CHENAULT AIRPK SUNNY     61  45  55 SE12G17   30.26R

$$

LAZ027-028-281700-
CENTRAL LOUISIANA

CITY           SKY/WX    TMP DP  RH WIND       PRES   REMARKS
FORT POLK      SUNNY     59  39  47 SE10      30.26R
ALEXANDRIA INT SUNNY     56  41  57 S9        30.26R
ALEXANDRIA     SUNNY     58  40  51 S6        30.27R

$$

LAZ001-002-281700-
NORTHWEST LOUISIANA

CITY           SKY/WX    TMP DP  RH WIND       PRES   REMARKS
SHREVEPORT     SUNNY     61  45  55 S8        30.22R
BARKSDALE AFB  SUNNY     59  43  55 S10       30.23R
DTN SHREVEPORT SUNNY     59  43  55 S8        30.23R

$$

LAZ014-016-281700-
NORTHEAST LOUISIANA

CITY           SKY/WX    TMP DP  RH WIND       PRES   REMARKS
MONROE         SUNNY     55  39  54 S8        30.28R
TALLULAH       SUNNY     52  37  56 E9        30.28S

$$




USA.gov is the U.S. government's official web portal to all federal, state and local government web resources and services.